Weather History for Bonilla Island, BC

Change the Weather History Date:

Tuesday, November 27, 2012

  Actual Average Record
Temperature  
Mean Temperature 45 °F -  
Max Temperature 49 °F - - ()
Min Temperature 41 °F - - ()
Degree Days  
Heating Degree Days 20    
Moisture  
Dew Point 30 °F    
Average Humidity 52    
Maximum Humidity 86    
Minimum Humidity 35    
Precipitation  
Precipitation 0.00 in - - ()
Sea Level Pressure  
Sea Level Pressure 29.87 in    
Wind  
Wind Speed 5 mph ()    
Max Wind Speed 12 mph    
Max Gust Speed 22 mph    
T = Trace of Precipitation, MM = Missing Value Source: Averaged Metar Reports

Daily Weather History Graph

Daily Weather History Graph

Search for Another Location

Airport:

Trip Planner

Search our weather history database for the weather conditions in past years. The results will help you decide how hot, cold, wet, or windy it might be!

Date:

Astronomy

Nov. 27, 2012 Rise Set
Actual Time 8:30 AM PST 4:30 PM PST
Civil Twilight 7:49 AM PST 5:11 PM PST
Nautical Twilight 7:05 AM PST 5:55 PM PST
Astronomical Twilight 6:23 AM PST 6:37 PM PST
Moon 4:08 PM PST (11/27) 7:38 AM PST (11/27)
Length of Visible Light 9h 21m
Length of Day
7h 59m
Waxing Gibbous, 99% of the Moon is Illuminated
Nov 27
Waxing Gibbous
Nov 28
Full
Dec 6
Last Quarter
Dec 13
New
Dec 19
First Quarter

Hourly Weather History & Observations

Time (PST) Temp. Windchill Dew Point Humidity Pressure Visibility Wind Dir Wind Speed Gust Speed Precip Events Conditions
12:00 AM 41.0 °F - 37.0 °F 86% 30.01 in - ESE 1.2 mph - N/A   Unknown
1:00 AM 43.0 °F - 34.7 °F 73% 29.99 in - Calm Calm - N/A   Unknown
2:00 AM 42.8 °F - 35.2 °F 75% 29.98 in - NW 1.2 mph - N/A   Unknown
3:00 AM 43.3 °F - 31.5 °F 63% 29.98 in - Calm Calm - N/A   Unknown
4:00 AM 44 °F - 32 °F 52% 29.97 in - SSE 2.3 mph - -  
4:00 AM 44.1 °F - 32.0 °F 63% 29.97 in - SSE 2.3 mph - N/A   Unknown
5:00 AM 45.3 °F 42.3 °F 29.7 °F 54% 29.95 in - SSE 5.8 mph - N/A   Unknown
6:00 AM 45.1 °F 42.0 °F 31.5 °F 59% 29.94 in - SSE 5.8 mph - N/A   Unknown
7:00 AM 46.0 °F 42.5 °F 27.5 °F 48% 29.93 in - ESE 6.9 mph - N/A   Unknown
8:00 AM 46.2 °F 41.7 °F 26.6 °F 46% 29.92 in - ESE 9.2 mph 18.4 mph N/A   Unknown
9:00 AM 46.2 °F 42.7 °F 28.8 °F 51% 29.91 in - SE 6.9 mph - N/A   Unknown
10:00 AM 46 °F - 28 °F 37% 29.91 in - ESE 9.2 mph - -  
10:00 AM 46.4 °F 41.9 °F 28.0 °F 49% 29.91 in - ESE 9.2 mph 18.4 mph N/A   Unknown
12:00 PM 48.0 °F - 26.6 °F 43% 29.88 in - SE 9.2 mph 18.4 mph N/A   Unknown
1:00 PM 47.5 °F - 27.7 °F 46% 29.86 in - SE 10.4 mph 19.6 mph N/A   Unknown
2:00 PM 47.3 °F - 28.8 °F 49% 29.84 in - SE 9.2 mph 17.3 mph N/A   Unknown
3:00 PM 47.8 °F - 27.7 °F 46% 29.82 in - SE 9.2 mph 19.6 mph N/A   Unknown
4:00 PM 48 °F - 29 °F 35% 29.80 in - SE 11.5 mph - -  
5:00 PM 48.4 °F - 30.0 °F 49% 29.78 in - SE 10.4 mph 19.6 mph N/A   Unknown
6:00 PM 48.6 °F - 29.7 °F 48% 29.76 in - SE 10.4 mph 17.3 mph N/A   Unknown
7:00 PM 48.9 °F - 30.7 °F 50% 29.75 in - SE 9.2 mph 19.6 mph N/A   Unknown
8:00 PM 49.3 °F - 30.4 °F 48% 29.72 in - SE 11.5 mph 21.9 mph N/A   Unknown
9:00 PM 48.7 °F - 30.0 °F 48% 29.71 in - SE 11.5 mph 19.6 mph N/A   Unknown
10:00 PM 48 °F - 31 °F 40% 29.71 in - SE 11.5 mph - -  
10:00 PM 48.4 °F - 31.5 °F 52% 29.71 in - SE 11.5 mph 20.7 mph N/A   Unknown